K6FAK-13 Weather Reports


time (UTC)temp
C
wind
direction
speed
KPH
gust
KPH
rain 1hr
cm
rain 24hr
cm
rain mn
cm
humidity
%
barometer
mb
20260506140321 15 189 0.0 0.0 0.00 0.00 0.00 87 1022.6
20260506135818 15 186 0.0 0.0 0.00 0.00 0.00 87 1022.4
20260506135315 14 200 0.0 0.0 0.00 0.00 0.00 87 1022.4
20260506134811 14 192 0.0 0.0 0.00 0.00 0.00 87 1022.2
20260506134308 14 201 0.0 0.0 0.00 0.00 0.00 88 1022.2
20260506133805 14 191 0.0 0.0 0.00 0.00 0.00 88 1022.1
20260506133302 14 200 0.0 0.0 0.00 0.00 0.00 88 1022.2
20260506132758 14 182 0.0 0.0 0.00 0.00 0.00 88 1022.2
20260506132256 14 183 0.0 0.0 0.00 0.00 0.00 88 1022.2
20260506131754 14 183 0.0 0.0 0.00 0.00 0.00 88 1022.1
20260506131249 14 183 0.0 0.0 0.00 0.00 0.00 88 1022.1
20260506130746 14 183 0.0 0.0 0.00 0.00 0.00 88 1022.1
20260506130243 14 180 0.0 0.0 0.00 0.00 0.00 87 1021.9
20260506125741 14 183 0.0 0.0 0.00 0.00 0.00 87 1021.9
20260506125239 14 180 0.0 0.0 0.00 0.00 0.00 87 1021.8
20260506124737 14 182 0.0 0.0 0.00 0.00 0.00 87 1022.0
20260506124234 14 186 0.0 0.0 0.00 0.00 0.00 87 1021.7
20260506123732 14 206 1.6 1.6 0.00 0.00 0.00 86 1021.7
20260506123230 14 192 0.0 0.0 0.00 0.00 0.00 86 1022.0
20260506122727 14 191 0.0 0.0 0.00 0.00 0.00 87 1021.6
20260506122224 14 187 0.0 0.0 0.00 0.00 0.00 87 1021.6
20260506121722 14 184 1.6 1.6 0.00 0.00 0.00 87 1021.9
20260506121218 14 191 0.0 0.0 0.00 0.00 0.00 87 1021.7
20260506120716 14 185 0.0 0.0 0.00 0.00 0.00 87 1021.5
20260506120213 14 185 0.0 0.0 0.00 0.00 0.00 86 1021.8
20260506115711 14 191 0.0 0.0 0.00 0.00 0.00 86 1021.7
20260506115209 14 197 0.0 0.0 0.00 0.00 0.00 86 1021.5
20260506114707 14 189 0.0 0.0 0.00 0.00 0.00 86 1021.4
20260506114204 14 186 0.0 0.0 0.00 0.00 0.00 86 1021.6
20260506113703 14 191 0.0 0.0 0.00 0.00 0.00 86 1021.6
20260506113200 14 184 0.0 0.0 0.00 0.00 0.00 86 1021.5
20260506112655 14 194 0.0 0.0 0.00 0.00 0.00 86 1021.4
20260506112154 14 180 0.0 0.0 0.00 0.00 0.00 86 1021.3
20260506111651 14 186 0.0 0.0 0.00 0.00 0.00 85 1021.2
20260506111149 14 184 0.0 0.0 0.00 0.00 0.00 85 1021.3
20260506110646 14 189 0.0 0.0 0.00 0.00 0.00 85 1021.2
20260506110143 15 186 0.0 0.0 0.00 0.00 0.00 85 1021.3
20260506105640 15 184 0.0 0.0 0.00 0.00 0.00 84 1021.2
20260506105137 15 186 0.0 0.0 0.00 0.00 0.00 84 1021.0
20260506104634 15 180 0.0 1.6 0.00 0.00 0.00 84 1021.1
20260506104132 15 185 1.6 1.6 0.00 0.00 0.00 84 1021.0
20260506103629 15 186 1.6 1.6 0.00 0.00 0.00 84 1021.1
20260506103126 15 197 0.0 0.0 0.00 0.00 0.00 84 1021.1
20260506102624 15 182 0.0 1.6 0.00 0.00 0.00 83 1020.9
20260506102121 15 184 1.6 1.6 0.00 0.00 0.00 83 1020.8
20260506101617 15 185 0.0 0.0 0.00 0.00 0.00 83 1020.9
20260506101114 15 186 1.6 1.6 0.00 0.00 0.00 82 1021.1
20260506100613 15 191 1.6 3.2 0.00 0.00 0.00 82 1020.8
20260506100110 15 193 3.2 3.2 0.00 0.00 0.00 82 1021.0
20260506095609 15 172 1.6 1.6 0.00 0.00 0.00 82 1020.7
20260506095105 15 200 3.2 3.2 0.00 0.00 0.00 82 1020.8
20260506094603 15 194 3.2 4.8 0.00 0.00 0.00 82 1021.0
20260506094101 15 210 3.2 3.2 0.00 0.00 0.00 82 1020.8
20260506093559 15 201 3.2 3.2 0.00 0.00 0.00 82 1020.7
20260506093056 15 179 1.6 1.6 0.00 0.00 0.00 81 1020.9
20260506092554 15 199 1.6 1.6 0.00 0.00 0.00 81 1020.8
20260506092050 15 201 3.2 4.8 0.00 0.00 0.00 81 1020.9
20260506091549 15 211 1.6 1.6 0.00 0.00 0.00 81 1020.9
20260506091046 15 186 4.8 8.0 0.00 0.00 0.00 81 1020.9
20260506090543 15 220 4.8 4.8 0.00 0.00 0.00 81 1020.9
20260506090039 15 207 1.6 1.6 0.00 0.00 0.00 81 1020.8
20260506085536 15 205 3.2 3.2 0.00 0.00 0.00 82 1021.0
20260506085033 15 188 0.0 0.0 0.00 0.00 0.00 82 1020.8
20260506084530 15 186 1.6 1.6 0.00 0.00 0.00 82 1021.0
20260506084026 15 196 3.2 3.2 0.00 0.00 0.00 82 1020.9
20260506083523 15 203 1.6 1.6 0.00 0.00 0.00 82 1020.7
20260506083021 15 203 3.2 3.2 0.00 0.00 0.00 82 1020.8
20260506082517 15 196 1.6 1.6 0.00 0.00 0.00 82 1020.9
20260506082013 15 236 4.8 4.8 0.00 0.00 0.00 82 1020.7
20260506081512 15 209 3.2 3.2 0.00 0.00 0.00 82 1020.9
20260506081009 15 193 3.2 4.8 0.00 0.00 0.00 83 1021.0
20260506080506 15 182 1.6 1.6 0.00 0.00 0.00 83 1020.8
20260506073449 15 174 4.8 4.8 0.00 0.00 0.00 82 1020.6
20260506072946 15 196 1.6 3.2 0.00 0.00 0.00 82 1020.6
20260506072444 15 195 4.8 4.8 0.00 0.00 0.00 82 1020.4
20260506071942 15 203 3.2 3.2 0.00 0.00 0.00 82 1020.4
20260506071439 15 222 6.4 8.0 0.00 0.00 0.00 82 1020.3
20260506070936 15 209 6.4 8.0 0.00 0.00 0.00 82 1020.2
20260506070433 15 213 6.4 8.0 0.00 0.00 0.00 82 1020.3
20260506062410 15 184 4.8 4.8 0.00 0.08 0.08 81 1020.0
20260506061906 15 185 4.8 8.0 0.00 0.08 0.08 81 1019.9
20260506061403 15 204 8.0 9.7 0.00 0.08 0.08 81 1019.9
20260506060901 15 193 3.2 3.2 0.00 0.08 0.08 81 1020.0
20260506060359 15 216 6.4 9.7 0.00 0.08 0.08 81 1019.6
20260506051331 15 204 8.0 9.7 0.00 0.08 0.08 82 1019.4
20260506050828 15 209 6.4 9.7 0.00 0.08 0.08 82 1019.4
20260506050325 15 220 6.4 8.0 0.00 0.08 0.08 82 1019.4
20260506044816 15 238 11.3 12.9 0.00 0.08 0.08 82 1019.1
20260506044314 15 232 3.2 4.8 0.00 0.08 0.08 82 1018.9
20260506043810 15 215 9.7 12.9 0.00 0.08 0.08 82 1018.9
20260506043308 15 196 8.0 11.3 0.00 0.08 0.08 82 1019.1
20260506042806 15 177 8.0 11.3 0.00 0.08 0.08 82 1018.9
20260506042305 15 210 3.2 3.2 0.00 0.08 0.08 82 1018.8
20260506041803 15 228 6.4 8.0 0.00 0.08 0.08 82 1019.1
20260506041300 15 211 8.0 11.3 0.00 0.08 0.08 81 1018.8
20260506040757 15 205 8.0 11.3 0.00 0.08 0.08 81 1018.9
20260506040254 15 262 4.8 8.0 0.00 0.08 0.08 81 1018.8
20260506035750 15 218 6.4 8.0 0.00 0.08 0.08 81 1018.7
20260506035247 15 208 4.8 8.0 0.00 0.08 0.08 81 1018.7
20260506034745 16 188 8.0 11.3 0.00 0.08 0.08 81 1018.8
20260506034242 16 274 6.4 9.7 0.00 0.08 0.08 81 1018.7
20260506033739 16 214 8.0 9.7 0.00 0.08 0.08 81 1018.6
20260506033236 16 225 8.0 9.7 0.00 0.08 0.08 81 1018.7
20260506032732 16 235 9.7 9.7 0.00 0.08 0.08 81 1018.3
20260506032230 16 215 4.8 8.0 0.00 0.08 0.08 81 1018.3
20260506031726 16 200 6.4 11.3 0.00 0.08 0.08 80 1018.2
20260506031224 16 230 6.4 8.0 0.00 0.08 0.08 80 1018.2
20260506030722 16 190 8.0 11.3 0.00 0.08 0.08 80 1018.1
20260506030219 16 216 8.0 12.9 0.00 0.08 0.08 80 1018.1
20260506025716 16 208 11.3 14.5 0.00 0.08 0.08 80 1018.0
20260506025212 16 216 11.3 14.5 0.00 0.08 0.08 80 1017.8
20260506024709 16 238 9.7 14.5 0.00 0.08 0.08 80 1017.9
20260506024205 16 184 14.5 16.1 0.00 0.08 0.08 80 1018.0
20260506023702 16 213 14.5 17.7 0.00 0.08 0.08 80 1018.0
20260506023159 16 214 9.7 11.3 0.00 0.08 0.08 81 1017.9
20260506022656 16 231 8.0 9.7 0.00 0.08 0.08 81 1017.9
20260506022154 16 187 6.4 9.7 0.00 0.08 0.08 81 1017.7
20260506021652 16 208 8.0 8.0 0.00 0.08 0.08 81 1017.7
20260506021148 16 208 6.4 9.7 0.00 0.08 0.08 80 1017.6
20260506020645 16 197 11.3 12.9 0.00 0.08 0.08 80 1017.7
20260506020143 17 223 14.5 20.9 0.00 0.08 0.08 80 1017.8
20260506015640 17 263 6.4 9.7 0.00 0.08 0.08 79 1017.8
20260506015137 17 267 6.4 9.7 0.00 0.08 0.08 79 1017.8
20260506014635 17 212 8.0 12.9 0.00 0.08 0.08 78 1017.7
20260506014130 17 203 12.9 16.1 0.00 0.08 0.08 79 1017.9
20260506013629 17 212 9.7 12.9 0.00 0.08 0.08 78 1017.9
20260506013125 17 232 9.7 12.9 0.00 0.08 0.08 78 1017.7
20260506012622 17 214 12.9 14.5 0.00 0.08 0.08 78 1017.7
20260506012118 17 235 6.4 8.0 0.00 0.08 0.08 77 1017.7
20260506011616 17 196 4.8 8.0 0.00 0.08 0.08 78 1017.7
20260506011112 17 183 11.3 14.5 0.00 0.08 0.08 77 1017.7
20260506010606 17 158 9.7 20.9 0.00 0.08 0.08 77 1017.2
20260506005559 18 222 8.0 14.5 0.00 0.08 0.08 77 1017.3
20260506005055 18 222 9.7 14.5 0.00 0.08 0.08 77 1017.5
20260506004552 18 229 14.5 17.7 0.00 0.08 0.08 76 1017.3
20260506004049 18 218 8.0 9.7 0.00 0.08 0.08 76 1017.4
20260506003545 18 210 8.0 12.9 0.00 0.08 0.08 76 1017.4
20260506003042 18 179 9.7 11.3 0.00 0.08 0.08 75 1017.6
20260506002538 18 232 6.4 8.0 0.00 0.08 0.08 76 1017.4
20260506002034 18 202 14.5 16.1 0.00 0.08 0.08 76 1017.4
20260506001530 18 229 11.3 14.5 0.00 0.08 0.08 76 1017.5
20260506001028 18 198 4.8 8.0 0.00 0.08 0.08 75 1017.3
20260506000525 18 235 6.4 9.7 0.00 0.08 0.08 75 1017.3
20260506000023 18 227 11.3 12.9 0.00 0.08 0.08 75 1017.2
20260505235520 18 266 9.7 14.5 0.00 0.08 0.08 74 1017.2
20260505235017 18 212 6.4 9.7 0.00 0.08 0.08 76 1017.3
20260505234514 18 214 11.3 14.5 0.00 0.08 0.08 76 1017.5
20260505234011 18 210 8.0 9.7 0.00 0.08 0.08 76 1017.5
20260505233508 18 233 4.8 4.8 0.00 0.08 0.08 76 1017.3
20260505233005 18 215 4.8 8.0 0.00 0.08 0.08 76 1017.4
20260505232503 18 205 1.6 4.8 0.00 0.08 0.08 76 1017.5
20260505232001 18 215 4.8 4.8 0.00 0.08 0.08 77 1017.3
20260505231457 17 220 3.2 4.8 0.00 0.08 0.08 78 1017.5
20260505230956 17 223 11.3 12.9 0.00 0.08 0.08 78 1017.6
20260505230453 17 178 6.4 8.0 0.00 0.08 0.08 78 1017.7
20260505225949 17 222 12.9 14.5 0.00 0.08 0.08 78 1017.4
20260505225446 17 206 4.8 9.7 0.00 0.08 0.08 78 1017.5
20260505224942 17 202 8.0 11.3 0.00 0.08 0.08 79 1017.6
20260505224439 17 201 12.9 17.7 0.00 0.08 0.08 78 1017.5
20260505223937 17 214 6.4 8.0 0.00 0.08 0.08 78 1017.6
20260505223433 17 195 8.0 9.7 0.00 0.08 0.08 78 1017.6
20260505222930 17 209 6.4 8.0 0.00 0.08 0.08 78 1017.7
20260505222426 17 215 3.2 8.0 0.00 0.08 0.08 78 1017.7
20260505221922 17 163 0.0 0.0 0.00 0.08 0.08 78 1017.7
20260505221420 18 162 1.6 3.2 0.00 0.08 0.08 78 1017.8
20260505220917 18 57 1.6 3.2 0.00 0.08 0.08 77 1017.7
20260505220413 18 79 4.8 4.8 0.00 0.08 0.08 77 1017.6
20260505215911 18 137 1.6 3.2 0.00 0.08 0.08 78 1017.8
20260505215409 18 178 3.2 3.2 0.00 0.08 0.08 76 1017.6
20260505214907 18 216 3.2 4.8 0.00 0.08 0.08 77 1017.9
20260505214404 18 232 1.6 4.8 0.00 0.08 0.08 77 1017.8
20260505213901 18 140 3.2 8.0 0.00 0.08 0.08 77 1017.9
20260505213359 18 149 1.6 1.6 0.00 0.08 0.08 79 1017.7
20260505212855 17 183 1.6 1.6 0.00 0.08 0.08 78 1018.0
20260505212352 18 173 3.2 3.2 0.00 0.08 0.08 78 1017.8
20260505211848 17 172 3.2 4.8 0.00 0.08 0.08 79 1017.8
20260505211346 17 132 3.2 4.8 0.00 0.08 0.08 79 1018.0
20260505210842 17 182 0.0 1.6 0.00 0.08 0.08 79 1018.1
20260505210339 17 173 0.0 1.6 0.00 0.08 0.08 78 1018.1
20260505205836 18 146 1.6 1.6 0.00 0.08 0.08 78 1017.8
20260505205334 18 158 0.0 0.0 0.00 0.08 0.08 77 1018.1
20260505204831 18 232 0.0 0.0 0.00 0.08 0.08 77 1018.2
20260505204329 18 193 0.0 1.6 0.00 0.08 0.08 76 1018.1
20260505203826 19 192 1.6 1.6 0.00 0.08 0.08 75 1018.0
20260505203322 18 191 0.0 0.0 0.00 0.08 0.08 76 1018.1
20260505202819 18 282 1.6 3.2 0.00 0.08 0.08 74 1018.1
20260505202315 17 190 1.6 3.2 0.00 0.08 0.08 79 1018.2
20260505201811 18 159 3.2 4.8 0.00 0.08 0.08 78 1018.1
20260505201309 17 186 0.0 0.0 0.00 0.08 0.08 80 1018.3
20260505200807 17 130 1.6 3.2 0.00 0.08 0.08 81 1018.3
20260505200304 17 96 4.8 4.8 0.00 0.08 0.08 79 1018.3
20260505195759 17 155 1.6 3.2 0.00 0.08 0.08 82 1018.2
20260505195257 16 107 1.6 1.6 0.00 0.08 0.08 83 1018.3
20260505194754 17 4 1.6 3.2 0.00 0.08 0.08 83 1018.4
20260505194251 16 180 0.0 0.0 0.00 0.08 0.08 84 1018.5
20260505193746 16 190 0.0 1.6 0.00 0.08 0.08 84 1018.4
20260505193244 16 75 0.0 1.6 0.00 0.08 0.08 84 1018.5
20260505192742 16 164 0.0 0.0 0.00 0.08 0.08 86 1018.6
20260505192240 16 199 0.0 0.0 0.00 0.08 0.08 86 1018.3
20260505191737 15 180 0.0 0.0 0.00 0.08 0.08 87 1018.3
20260505191236 15 31 3.2 3.2 0.00 0.08 0.08 88 1018.4
20260505190732 15 310 0.0 0.0 0.00 0.08 0.08 89 1018.6
20260505190232 15 198 1.6 1.6 0.00 0.08 0.08 89 1018.4
20260505185728 15 19 9.7 11.3 0.00 0.08 0.08 87 1018.5
20260505185225 15 28 1.6 3.2 0.00 0.08 0.08 87 1018.2
20260505184721 15 21 1.6 3.2 0.00 0.08 0.08 87 1018.3
20260505184218 16 49 0.0 1.6 0.00 0.08 0.08 86 1018.2
20260505183715 16 161 0.0 1.6 0.00 0.08 0.08 86 1018.1
20260505183213 15 302 4.8 4.8 0.00 0.08 0.08 86 1018.2
20260505182708 15 213 1.6 3.2 0.00 0.08 0.08 87 1018.2
20260505182206 15 44 3.2 3.2 0.00 0.08 0.08 88 1018.2
20260505181702 15 276 4.8 4.8 0.00 0.08 0.08 88 1018.1
20260505181200 15 79 4.8 8.0 0.00 0.08 0.08 88 1018.2
20260505180655 15 341 4.8 4.8 0.00 0.08 0.08 89 1018.1
20260505180153 15 315 6.4 8.0 0.00 0.08 0.08 88 1018.1
20260505175649 15 338 8.0 9.7 0.00 0.08 0.08 89 1018.3
20260505175145 15 0 3.2 4.8 0.00 0.08 0.08 90 1018.0
20260505174642 15 17 4.8 4.8 0.00 0.08 0.08 91 1018.2
20260505174138 15 46 4.8 4.8 0.00 0.08 0.08 90 1018.1
20260505173635 15 8 4.8 8.0 0.00 0.08 0.08 89 1018.0
20260505173132 15 247 1.6 1.6 0.00 0.08 0.08 90 1017.9
20260505172629 15 350 6.4 8.0 0.00 0.08 0.08 88 1017.8
20260505172126 15 20 0.0 3.2 0.00 0.08 0.08 89 1017.7
20260505171621 15 356 3.2 3.2 0.00 0.08 0.08 88 1017.7
20260505171118 15 355 4.8 4.8 0.00 0.08 0.08 86 1017.8
20260505170615 15 179 0.0 0.0 0.00 0.08 0.08 89 1017.8
20260505170111 14 295 1.6 1.6 0.00 0.08 0.08 89 1017.9
20260505165606 15 228 1.6 3.2 0.00 0.08 0.08 88 1017.8
20260505165103 15 205 1.6 1.6 0.00 0.08 0.08 88 1017.9
20260505164558 15 259 3.2 3.2 0.00 0.08 0.08 88 1017.7
20260505164056 14 167 0.0 0.0 0.00 0.08 0.08 90 1017.8
20260505163555 14 188 0.0 0.0 0.00 0.08 0.08 91 1017.8
20260505163052 14 13 3.2 4.8 0.00 0.08 0.08 90 1017.6
20260505162549 13 203 0.0 0.0 0.00 0.08 0.08 92 1017.7
20260505162047 14 228 0.0 1.6 0.00 0.08 0.08 93 1017.7
20260505161544 13 185 0.0 0.0 0.00 0.08 0.08 93 1017.6
20260505161041 13 180 0.0 0.0 0.00 0.08 0.08 93 1017.6
20260505160539 13 159 0.0 0.0 0.00 0.08 0.08 94 1017.6
20260505153015 13 187 0.0 0.0 0.00 0.08 0.08 94 1017.4
20260505152512 13 190 0.0 0.0 0.00 0.08 0.08 94 1017.2
20260505152008 13 186 0.0 0.0 0.00 0.08 0.08 94 1016.9
20260505151503 13 183 0.0 0.0 0.00 0.08 0.08 93 1017.0
20260505151000 13 185 0.0 0.0 0.00 0.08 0.08 93 1017.2
20260505150457 13 186 0.0 0.0 0.00 0.08 0.08 94 1016.9